Year,Month,Day,Hour,Minute,Value (Times are PST for temperature in C)
2018,04,02,00,00,4.90
2018,04,02,00,01,4.90
2018,04,02,00,02,4.90
2018,04,02,00,03,4.90
2018,04,02,00,04,4.90
2018,04,02,00,05,4.90
2018,04,02,00,06,4.90
2018,04,02,00,07,4.90
2018,04,02,00,08,4.90
2018,04,02,00,09,4.90
2018,04,02,00,10,4.90
2018,04,02,00,11,4.90
2018,04,02,00,12,4.90
2018,04,02,00,13,4.90
2018,04,02,00,14,4.90
2018,04,02,00,15,4.90
2018,04,02,00,16,4.90
2018,04,02,00,17,4.90
2018,04,02,00,18,4.90
2018,04,02,00,19,4.90
2018,04,02,00,20,5.00
2018,04,02,00,21,5.00
2018,04,02,00,22,5.00
2018,04,02,00,23,5.00
2018,04,02,00,24,5.00
2018,04,02,00,25,5.00
2018,04,02,00,26,5.00
2018,04,02,00,27,5.00
2018,04,02,00,28,5.00
2018,04,02,00,29,5.00
2018,04,02,00,30,5.00
2018,04,02,00,31,5.00
2018,04,02,00,32,5.00
2018,04,02,00,33,5.00
2018,04,02,00,34,5.10
2018,04,02,00,35,5.20
2018,04,02,00,36,5.20
2018,04,02,00,37,5.20
2018,04,02,00,38,5.20
2018,04,02,00,39,5.30
2018,04,02,00,40,5.30
2018,04,02,00,41,5.30
2018,04,02,00,42,5.30
2018,04,02,00,43,5.30
2018,04,02,00,44,5.30
2018,04,02,00,45,5.30
2018,04,02,00,46,5.30
2018,04,02,00,47,5.30
2018,04,02,00,48,5.30
2018,04,02,00,49,5.30
2018,04,02,00,50,5.30
2018,04,02,00,51,5.30
2018,04,02,00,52,5.30
2018,04,02,00,53,5.30
2018,04,02,00,54,5.30
2018,04,02,00,55,5.30
2018,04,02,00,56,5.30
2018,04,02,00,57,5.30
2018,04,02,00,58,5.20
2018,04,02,00,59,5.20
2018,04,02,01,00,5.20
2018,04,02,01,01,5.20
2018,04,02,01,02,5.20
2018,04,02,01,03,5.20
2018,04,02,01,04,5.20
2018,04,02,01,05,5.20
2018,04,02,01,06,5.20
2018,04,02,01,07,5.20
2018,04,02,01,08,5.20
2018,04,02,01,09,5.20
2018,04,02,01,10,5.20
2018,04,02,01,11,5.20
2018,04,02,01,12,5.10
2018,04,02,01,13,5.10
2018,04,02,01,14,5.10
2018,04,02,01,15,5.10
2018,04,02,01,16,5.10
2018,04,02,01,17,5.00
2018,04,02,01,18,5.00
2018,04,02,01,19,5.00
2018,04,02,01,20,5.00
2018,04,02,01,21,5.00
2018,04,02,01,22,4.90
2018,04,02,01,23,4.90
2018,04,02,01,24,4.90
2018,04,02,01,25,4.90
2018,04,02,01,26,4.90
2018,04,02,01,27,4.90
2018,04,02,01,28,4.90
2018,04,02,01,29,4.90
2018,04,02,01,30,4.80
2018,04,02,01,31,4.80
2018,04,02,01,32,4.80
2018,04,02,01,33,4.80
2018,04,02,01,34,4.80
2018,04,02,01,35,4.80
2018,04,02,01,36,4.80
2018,04,02,01,37,4.70
2018,04,02,01,38,4.70
2018,04,02,01,39,4.70
2018,04,02,01,40,4.70
2018,04,02,01,41,4.70
2018,04,02,01,42,4.70
2018,04,02,01,43,4.70
2018,04,02,01,44,4.70
2018,04,02,01,45,4.70
2018,04,02,01,46,4.70
2018,04,02,01,47,4.70
2018,04,02,01,48,4.70
2018,04,02,01,49,4.70
2018,04,02,01,50,4.60
2018,04,02,01,51,4.60
2018,04,02,01,52,4.60
2018,04,02,01,53,4.60
2018,04,02,01,54,4.60
2018,04,02,01,55,4.60
2018,04,02,01,56,4.60
2018,04,02,01,57,4.60
2018,04,02,01,58,4.60
2018,04,02,01,59,4.60
2018,04,02,02,00,4.50
2018,04,02,02,01,4.50
2018,04,02,02,02,4.50
2018,04,02,02,03,4.50
2018,04,02,02,04,4.50
2018,04,02,02,05,4.50
2018,04,02,02,06,4.50
2018,04,02,02,07,4.50
2018,04,02,02,08,4.50
2018,04,02,02,09,4.50
2018,04,02,02,10,4.50
2018,04,02,02,11,4.50
2018,04,02,02,12,4.60
2018,04,02,02,13,4.60
2018,04,02,02,14,4.60
2018,04,02,02,15,4.60
2018,04,02,02,16,4.60
2018,04,02,02,17,4.60
2018,04,02,02,18,4.60
2018,04,02,02,19,4.60
2018,04,02,02,20,4.60
2018,04,02,02,21,4.60
2018,04,02,02,22,4.60
2018,04,02,02,23,4.60
2018,04,02,02,24,4.60
2018,04,02,02,25,4.60
2018,04,02,02,26,4.60
2018,04,02,02,27,4.60
2018,04,02,02,28,4.50
2018,04,02,02,29,4.50
2018,04,02,02,30,4.50
2018,04,02,02,31,4.50
2018,04,02,02,32,4.40
2018,04,02,02,33,4.40
2018,04,02,02,34,4.40
2018,04,02,02,35,4.40
2018,04,02,02,36,4.40
2018,04,02,02,37,4.40
2018,04,02,02,38,4.40
2018,04,02,02,39,4.40
2018,04,02,02,40,4.40
2018,04,02,02,41,4.40
2018,04,02,02,42,4.40
2018,04,02,02,43,4.40
2018,04,02,02,44,4.40
2018,04,02,02,45,4.40
2018,04,02,02,46,4.40
2018,04,02,02,47,4.40
2018,04,02,02,48,4.40
2018,04,02,02,49,4.40
2018,04,02,02,50,4.40
2018,04,02,02,51,4.30
2018,04,02,02,52,4.30
2018,04,02,02,53,4.30
2018,04,02,02,54,4.20
2018,04,02,02,55,4.20
2018,04,02,02,56,4.20
2018,04,02,02,57,4.20
2018,04,02,02,58,4.20
2018,04,02,02,59,4.20
2018,04,02,03,00,4.20
2018,04,02,03,01,4.20
2018,04,02,03,02,4.20
2018,04,02,03,03,4.20
2018,04,02,03,04,4.20
2018,04,02,03,05,4.20
2018,04,02,03,06,4.20
2018,04,02,03,07,4.10
2018,04,02,03,08,4.10
2018,04,02,03,09,4.10
2018,04,02,03,10,4.10
2018,04,02,03,11,4.10
2018,04,02,03,12,4.10
2018,04,02,03,13,4.10
2018,04,02,03,14,4.10
2018,04,02,03,15,4.10
2018,04,02,03,16,4.10
2018,04,02,03,17,4.10
2018,04,02,03,18,4.00
2018,04,02,03,19,4.00
2018,04,02,03,20,4.00
2018,04,02,03,21,4.00
2018,04,02,03,22,3.90
2018,04,02,03,23,3.90
2018,04,02,03,24,3.90
2018,04,02,03,25,3.80
2018,04,02,03,26,3.80
2018,04,02,03,27,3.80
2018,04,02,03,28,3.80
2018,04,02,03,29,3.80
2018,04,02,03,30,3.80
2018,04,02,03,31,3.80
2018,04,02,03,32,3.80
2018,04,02,03,33,3.80
2018,04,02,03,34,3.80
2018,04,02,03,35,3.80
2018,04,02,03,36,3.80
2018,04,02,03,37,3.80
2018,04,02,03,38,3.80
2018,04,02,03,39,3.80
2018,04,02,03,40,3.80
2018,04,02,03,41,3.80
2018,04,02,03,42,3.80
2018,04,02,03,43,3.80
2018,04,02,03,44,3.70
2018,04,02,03,45,3.70
2018,04,02,03,46,3.70
2018,04,02,03,47,3.70
2018,04,02,03,48,3.70
2018,04,02,03,49,3.70
2018,04,02,03,50,3.70
2018,04,02,03,51,3.70
2018,04,02,03,52,3.70
2018,04,02,03,53,3.70
2018,04,02,03,54,3.70
2018,04,02,03,55,3.70
2018,04,02,03,56,3.70
2018,04,02,03,57,3.70
2018,04,02,03,58,3.70
2018,04,02,03,59,3.70
2018,04,02,04,00,3.70
2018,04,02,04,01,3.70
2018,04,02,04,02,3.70
2018,04,02,04,03,3.70
2018,04,02,04,04,3.70
2018,04,02,04,05,3.70
2018,04,02,04,06,3.80
2018,04,02,04,07,3.80
2018,04,02,04,08,3.80
2018,04,02,04,09,3.90
2018,04,02,04,10,3.90
2018,04,02,04,11,3.90
2018,04,02,04,12,3.90
2018,04,02,04,13,3.90
2018,04,02,04,14,3.90
2018,04,02,04,15,3.90
2018,04,02,04,16,3.90
2018,04,02,04,17,3.90
2018,04,02,04,18,3.90
2018,04,02,04,19,3.90
2018,04,02,04,20,3.90
2018,04,02,04,21,4.00
2018,04,02,04,22,4.00
2018,04,02,04,23,4.00
2018,04,02,04,24,4.00
2018,04,02,04,25,4.00
2018,04,02,04,26,4.00
2018,04,02,04,27,3.90
2018,04,02,04,28,3.90
2018,04,02,04,29,3.80
2018,04,02,04,30,3.80
2018,04,02,04,31,3.80
2018,04,02,04,32,3.70
2018,04,02,04,33,3.70
2018,04,02,04,34,3.70
2018,04,02,04,35,3.70
2018,04,02,04,36,3.60
2018,04,02,04,37,3.60
2018,04,02,04,38,3.60
2018,04,02,04,39,3.60
2018,04,02,04,40,3.60
2018,04,02,04,41,3.60
2018,04,02,04,42,3.50
2018,04,02,04,43,3.50
2018,04,02,04,44,3.50
2018,04,02,04,45,3.40
2018,04,02,04,46,3.40
2018,04,02,04,47,3.40
2018,04,02,04,48,3.30
2018,04,02,04,49,3.30
2018,04,02,04,50,3.30
2018,04,02,04,51,3.30
2018,04,02,04,52,3.30
2018,04,02,04,53,3.20
2018,04,02,04,54,3.20
2018,04,02,04,55,3.20
2018,04,02,04,56,3.20
2018,04,02,04,57,3.20
2018,04,02,04,58,3.10
2018,04,02,04,59,3.10
2018,04,02,05,00,3.10
2018,04,02,05,01,3.10
2018,04,02,05,02,3.10
2018,04,02,05,03,3.10
2018,04,02,05,04,3.10
2018,04,02,05,05,3.10
2018,04,02,05,06,3.10
2018,04,02,05,07,3.10
2018,04,02,05,08,3.10
2018,04,02,05,09,3.10
2018,04,02,05,10,3.00
2018,04,02,05,11,3.00
2018,04,02,05,12,3.00
2018,04,02,05,13,2.90
2018,04,02,05,14,2.90
2018,04,02,05,15,2.80
2018,04,02,05,16,2.80
2018,04,02,05,17,2.80
2018,04,02,05,18,2.80
2018,04,02,05,19,2.80
2018,04,02,05,20,2.80
2018,04,02,05,21,2.80
2018,04,02,05,22,2.80
2018,04,02,05,23,2.80
2018,04,02,05,24,2.80
2018,04,02,05,25,2.70
2018,04,02,05,26,2.70
2018,04,02,05,27,2.70
2018,04,02,05,28,2.70
2018,04,02,05,29,2.70
2018,04,02,05,30,2.70
2018,04,02,05,31,2.70
2018,04,02,05,32,2.70
2018,04,02,05,33,2.70
2018,04,02,05,34,2.70
2018,04,02,05,35,2.70
2018,04,02,05,36,2.70
2018,04,02,05,37,2.70
2018,04,02,05,38,2.70
2018,04,02,05,39,2.70
2018,04,02,05,40,2.70
2018,04,02,05,41,2.70
2018,04,02,07,39,2.30
2018,04,02,07,40,2.30
2018,04,02,07,41,2.40
2018,04,02,07,42,2.40
2018,04,02,07,43,2.40
2018,04,02,07,44,2.40
2018,04,02,07,45,2.40
2018,04,02,07,46,2.40
2018,04,02,07,47,2.40
2018,04,02,07,48,2.40
2018,04,02,07,49,2.50
2018,04,02,07,50,2.50
2018,04,02,07,51,2.50
2018,04,02,07,52,2.50
2018,04,02,07,53,2.50
2018,04,02,07,54,2.60
2018,04,02,07,55,2.60
2018,04,02,07,56,2.60
2018,04,02,07,57,2.60
2018,04,02,07,58,2.60
2018,04,02,07,59,2.60
2018,04,02,08,00,2.70
2018,04,02,08,01,2.70
2018,04,02,08,02,2.70
2018,04,02,08,03,2.70
2018,04,02,08,04,2.80
2018,04,02,08,05,2.80
2018,04,02,08,06,2.90
2018,04,02,08,07,2.90
2018,04,02,08,08,3.00
2018,04,02,08,09,3.10
2018,04,02,08,10,3.10
2018,04,02,08,11,3.20
2018,04,02,08,12,3.20
2018,04,02,08,13,3.30
2018,04,02,08,14,3.40
2018,04,02,08,15,3.40
2018,04,02,08,16,3.50
2018,04,02,08,17,3.60
2018,04,02,08,18,3.70
2018,04,02,08,19,3.70
2018,04,02,08,20,3.80
2018,04,02,08,21,3.90
2018,04,02,08,22,3.90
2018,04,02,08,23,4.00
2018,04,02,08,24,4.10
2018,04,02,08,25,4.20
2018,04,02,08,26,4.30
2018,04,02,08,27,4.30
2018,04,02,08,28,4.40
2018,04,02,08,29,4.50
2018,04,02,08,30,4.60
2018,04,02,08,31,4.60
2018,04,02,08,32,4.70
2018,04,02,08,33,4.80
2018,04,02,08,34,4.90
2018,04,02,08,35,5.00
2018,04,02,08,36,5.00
2018,04,02,08,37,5.10
2018,04,02,08,38,5.20
2018,04,02,08,39,5.20
2018,04,02,08,40,5.20
2018,04,02,08,41,5.30
2018,04,02,08,42,5.30
2018,04,02,08,43,5.40
2018,04,02,08,44,5.40
2018,04,02,08,45,5.40
2018,04,02,08,46,5.40
2018,04,02,08,47,5.50
2018,04,02,08,48,5.50
2018,04,02,08,49,5.50
2018,04,02,08,50,5.60
2018,04,02,08,51,5.60
2018,04,02,08,52,5.60
2018,04,02,08,53,5.60
2018,04,02,08,54,5.70
2018,04,02,08,55,5.70
2018,04,02,08,56,5.70
2018,04,02,08,57,5.70
2018,04,02,08,58,5.70
2018,04,02,08,59,5.80
2018,04,02,09,00,5.80
2018,04,02,09,01,5.80
2018,04,02,09,02,5.80
2018,04,02,09,03,5.90
2018,04,02,09,04,5.90
2018,04,02,09,05,5.90
2018,04,02,09,06,5.90
2018,04,02,09,07,5.90
2018,04,02,09,08,6.00
2018,04,02,09,09,6.00
2018,04,02,09,10,6.00
2018,04,02,09,11,6.10
2018,04,02,09,12,6.10
2018,04,02,09,13,6.20
2018,04,02,09,14,6.20
2018,04,02,09,15,6.20
2018,04,02,09,16,6.30
2018,04,02,09,17,6.30
2018,04,02,09,18,6.30
2018,04,02,09,19,6.40
2018,04,02,09,20,6.40
2018,04,02,09,21,6.40
2018,04,02,09,22,6.50
2018,04,02,09,23,6.50
2018,04,02,09,24,6.60
2018,04,02,09,25,6.60
2018,04,02,09,26,6.60
2018,04,02,09,27,6.70
2018,04,02,09,28,6.70
2018,04,02,09,29,6.70
2018,04,02,09,30,6.70
2018,04,02,09,31,6.70
2018,04,02,09,32,6.80
2018,04,02,09,33,6.80
2018,04,02,09,34,6.80
2018,04,02,09,35,6.80
2018,04,02,09,36,6.80
2018,04,02,09,37,6.80
2018,04,02,09,38,6.90
2018,04,02,09,39,6.90
2018,04,02,09,40,6.90
2018,04,02,09,41,6.90
2018,04,02,09,42,6.90
2018,04,02,09,43,6.90
2018,04,02,09,44,6.90
2018,04,02,09,45,6.90
2018,04,02,09,46,6.90
2018,04,02,09,47,7.00
2018,04,02,09,48,7.00
2018,04,02,09,49,7.00
2018,04,02,09,50,7.00
2018,04,02,09,51,7.10
2018,04,02,09,52,7.10
2018,04,02,09,53,7.10
2018,04,02,09,54,7.10
2018,04,02,09,55,7.10
2018,04,02,09,56,7.10
2018,04,02,09,57,7.00
2018,04,02,09,58,7.00
2018,04,02,09,59,7.00
2018,04,02,10,00,6.90
2018,04,02,10,01,6.90
2018,04,02,10,02,6.90
2018,04,02,10,03,6.90
2018,04,02,10,04,6.90
2018,04,02,10,05,6.90
2018,04,02,10,06,7.00
2018,04,02,10,07,7.00
2018,04,02,10,08,7.00
2018,04,02,10,09,7.10
2018,04,02,10,10,7.10
2018,04,02,10,11,7.10
2018,04,02,10,12,7.10
2018,04,02,10,13,7.00
2018,04,02,10,14,7.00
2018,04,02,10,15,7.00
2018,04,02,10,16,7.00
2018,04,02,10,17,7.00
2018,04,02,10,18,7.10
2018,04,02,10,19,7.10
2018,04,02,10,20,7.10
2018,04,02,10,21,7.20
2018,04,02,10,22,7.20
2018,04,02,10,23,7.20
2018,04,02,10,24,7.10
2018,04,02,10,25,7.10
2018,04,02,10,26,7.10
2018,04,02,10,27,7.10
2018,04,02,10,28,7.20
2018,04,02,10,29,7.20
2018,04,02,10,30,7.20
2018,04,02,10,31,7.20
2018,04,02,10,32,7.20
2018,04,02,10,33,7.20
2018,04,02,10,34,7.20
2018,04,02,10,35,7.20
2018,04,02,10,36,7.30
2018,04,02,10,37,7.30
2018,04,02,10,38,7.30
2018,04,02,10,39,7.30
2018,04,02,10,40,7.30
2018,04,02,10,41,7.30
2018,04,02,10,42,7.30
2018,04,02,10,43,7.40
2018,04,02,10,44,7.40
2018,04,02,10,45,7.40
2018,04,02,10,46,7.40
2018,04,02,10,47,7.40
2018,04,02,10,48,7.40
2018,04,02,10,49,7.50
2018,04,02,10,50,7.40
2018,04,02,10,51,7.40
2018,04,02,10,52,7.40
2018,04,02,10,53,7.40
2018,04,02,10,54,7.40
2018,04,02,10,55,7.40
2018,04,02,10,56,7.40
2018,04,02,10,57,7.40
2018,04,02,10,58,7.40
2018,04,02,10,59,7.30
2018,04,02,11,00,7.30
2018,04,02,11,01,7.30
2018,04,02,11,02,7.30
2018,04,02,11,03,7.30
2018,04,02,11,04,7.30
2018,04,02,11,05,7.40
2018,04,02,11,06,7.40
2018,04,02,11,07,7.40
2018,04,02,11,08,7.40
2018,04,02,11,09,7.40
2018,04,02,11,10,7.40
2018,04,02,11,11,7.40
2018,04,02,11,12,7.40
2018,04,02,11,13,7.40
2018,04,02,11,14,7.40
2018,04,02,11,15,7.40
2018,04,02,11,16,7.40
2018,04,02,11,17,7.40
2018,04,02,11,18,7.50
2018,04,02,11,19,7.60
2018,04,02,11,20,7.60
2018,04,02,11,21,7.60
2018,04,02,11,22,7.60
2018,04,02,11,23,7.60
2018,04,02,11,24,7.60
2018,04,02,11,25,7.60
2018,04,02,11,26,7.60
2018,04,02,11,27,7.60
2018,04,02,11,28,7.60
2018,04,02,11,29,7.60
2018,04,02,11,30,7.60
2018,04,02,11,31,7.60
2018,04,02,11,32,7.50
2018,04,02,11,33,7.50
2018,04,02,11,34,7.50
2018,04,02,11,35,7.50
2018,04,02,11,36,7.50
2018,04,02,11,37,7.50
2018,04,02,11,38,7.60
2018,04,02,11,39,7.60
2018,04,02,11,40,7.60
2018,04,02,11,41,7.60
2018,04,02,11,42,7.60
2018,04,02,11,43,7.60
2018,04,02,11,44,7.60
2018,04,02,11,45,7.70
2018,04,02,11,46,7.70
2018,04,02,11,47,7.70
2018,04,02,11,48,7.70
2018,04,02,11,49,7.70
2018,04,02,11,50,7.70
2018,04,02,11,51,7.70
2018,04,02,11,52,7.80
2018,04,02,11,53,7.80
2018,04,02,11,54,7.80
2018,04,02,11,55,7.80
2018,04,02,11,56,7.80
2018,04,02,11,57,7.90
2018,04,02,11,58,7.90
2018,04,02,11,59,7.90
2018,04,02,12,00,7.90
2018,04,02,12,01,8.00
2018,04,02,12,02,8.00
2018,04,02,12,03,8.00
2018,04,02,12,04,8.10
2018,04,02,12,05,8.20
2018,04,02,12,06,8.20
2018,04,02,12,07,8.20
2018,04,02,12,08,8.30
2018,04,02,12,09,8.40
2018,04,02,12,10,8.40
2018,04,02,12,11,8.40
2018,04,02,12,12,8.50
2018,04,02,12,13,8.40
2018,04,02,12,14,8.40
2018,04,02,12,15,8.40
2018,04,02,12,16,8.40
2018,04,02,12,17,8.40
2018,04,02,12,18,8.40
2018,04,02,12,19,8.40
2018,04,02,12,20,8.50
2018,04,02,12,21,8.50
2018,04,02,12,22,8.50
2018,04,02,12,23,8.60
2018,04,02,12,24,8.60
2018,04,02,12,25,8.60
2018,04,02,12,26,8.60
2018,04,02,12,27,8.60
2018,04,02,12,28,8.60
2018,04,02,12,29,8.60
2018,04,02,12,30,8.60
2018,04,02,12,31,8.60
2018,04,02,12,32,8.70
2018,04,02,12,33,8.70
2018,04,02,12,34,8.70
2018,04,02,12,35,8.70
2018,04,02,12,36,8.70
2018,04,02,12,37,8.70
2018,04,02,12,38,8.70
2018,04,02,12,39,8.70
2018,04,02,12,40,8.70
2018,04,02,12,41,8.70
2018,04,02,12,42,8.70
2018,04,02,12,43,8.70
2018,04,02,12,44,8.70
2018,04,02,12,45,8.80
2018,04,02,12,46,8.80
2018,04,02,12,47,8.80
2018,04,02,12,48,8.80
2018,04,02,12,49,8.90
2018,04,02,12,50,8.90
2018,04,02,12,51,8.90
2018,04,02,12,52,8.90
2018,04,02,12,53,8.80
2018,04,02,12,54,8.80
2018,04,02,12,55,8.90
2018,04,02,12,56,8.90
2018,04,02,12,57,8.90
2018,04,02,12,58,8.90
2018,04,02,12,59,8.80
2018,04,02,13,00,8.90
2018,04,02,13,01,8.80
2018,04,02,13,02,8.80
2018,04,02,13,03,8.90
2018,04,02,13,04,8.90
2018,04,02,13,05,9.00
2018,04,02,13,06,9.00
2018,04,02,13,07,9.00
2018,04,02,13,08,9.00
2018,04,02,13,09,9.00
2018,04,02,13,10,9.00
2018,04,02,13,11,9.00
2018,04,02,13,12,9.10
2018,04,02,13,13,9.10
2018,04,02,13,14,9.10
2018,04,02,13,15,9.10
2018,04,02,13,16,9.20
2018,04,02,13,17,9.20
2018,04,02,13,18,9.20
2018,04,02,13,19,9.20
2018,04,02,13,20,9.20
2018,04,02,13,21,9.20
2018,04,02,13,22,9.20
2018,04,02,13,23,9.30
2018,04,02,13,24,9.20
2018,04,02,13,25,9.30
2018,04,02,13,26,9.30
2018,04,02,13,27,9.30
2018,04,02,13,28,9.30
2018,04,02,13,29,9.20
2018,04,02,13,30,9.30
2018,04,02,13,31,9.20
2018,04,02,13,32,9.20
2018,04,02,13,33,9.20
2018,04,02,13,34,9.30
2018,04,02,13,35,9.30
2018,04,02,13,36,9.30
2018,04,02,13,37,9.30
2018,04,02,13,38,9.40
2018,04,02,13,39,9.40
2018,04,02,13,40,9.40
2018,04,02,13,41,9.40
2018,04,02,13,42,9.40
2018,04,02,13,43,9.40
2018,04,02,13,44,9.40
2018,04,02,13,45,9.30
2018,04,02,13,46,9.30
2018,04,02,13,47,9.30
2018,04,02,13,48,9.40
2018,04,02,13,49,9.40
2018,04,02,13,50,9.50
2018,04,02,13,51,9.50
2018,04,02,13,52,9.60
2018,04,02,13,53,9.60
2018,04,02,13,54,9.60
2018,04,02,13,55,9.60
2018,04,02,13,56,9.60
2018,04,02,13,57,9.60
2018,04,02,13,58,9.60
2018,04,02,13,59,9.60
2018,04,02,14,00,9.60
2018,04,02,14,01,9.60
2018,04,02,14,02,9.60
2018,04,02,14,03,9.60
2018,04,02,14,04,9.50
2018,04,02,14,05,9.50
2018,04,02,14,06,9.60
2018,04,02,14,07,9.60
2018,04,02,14,08,9.60
2018,04,02,14,09,9.60
2018,04,02,14,10,9.60
2018,04,02,14,11,9.70
2018,04,02,14,12,9.70
2018,04,02,14,13,9.80
2018,04,02,14,14,9.80
2018,04,02,14,15,9.80
2018,04,02,14,16,9.80
2018,04,02,14,17,9.70
2018,04,02,14,18,9.70
2018,04,02,14,19,9.70
2018,04,02,14,20,9.70
2018,04,02,14,21,9.70
2018,04,02,14,22,9.70
2018,04,02,14,23,9.70
2018,04,02,14,24,9.80
2018,04,02,14,25,9.80
2018,04,02,14,26,9.90
2018,04,02,14,27,9.90
2018,04,02,14,28,9.90
2018,04,02,14,29,9.80
2018,04,02,14,30,9.80
2018,04,02,14,31,9.80
2018,04,02,14,32,9.80
2018,04,02,14,33,9.80
2018,04,02,14,34,9.80
2018,04,02,14,35,9.90
2018,04,02,14,36,9.90
2018,04,02,14,37,10.00
2018,04,02,14,38,9.90
2018,04,02,14,39,9.90
2018,04,02,14,40,9.80
2018,04,02,14,41,9.80
2018,04,02,14,42,9.80
2018,04,02,14,43,9.80
2018,04,02,14,44,9.80
2018,04,02,14,45,9.80
2018,04,02,14,46,9.80
2018,04,02,14,47,9.80
2018,04,02,14,48,9.80
2018,04,02,14,49,9.70
2018,04,02,14,50,9.70
2018,04,02,14,51,9.70
2018,04,02,14,52,9.80
2018,04,02,14,53,9.70
2018,04,02,14,54,9.70
2018,04,02,14,55,9.70
2018,04,02,14,56,9.60
2018,04,02,14,57,9.60
2018,04,02,14,58,9.60
2018,04,02,14,59,9.70
2018,04,02,15,00,9.70
2018,04,02,15,01,9.70
2018,04,02,15,02,9.70
2018,04,02,15,03,9.70
2018,04,02,15,04,9.70
2018,04,02,15,05,9.70
2018,04,02,15,06,9.70
2018,04,02,15,07,9.70
2018,04,02,15,08,9.60
2018,04,02,15,09,9.70
2018,04,02,15,10,9.70
2018,04,02,15,11,9.70
2018,04,02,15,12,9.70
2018,04,02,15,13,9.70
2018,04,02,15,14,9.70
2018,04,02,15,15,9.70
2018,04,02,15,16,9.60
2018,04,02,15,17,9.60
2018,04,02,15,18,9.60
2018,04,02,15,19,9.70
2018,04,02,15,20,9.70
2018,04,02,15,21,9.80
2018,04,02,15,22,9.80
2018,04,02,15,23,9.80
2018,04,02,15,24,9.80
2018,04,02,15,25,9.80
2018,04,02,15,26,9.80
2018,04,02,15,27,9.70
2018,04,02,15,28,9.70
2018,04,02,15,29,9.70
2018,04,02,15,30,9.70
2018,04,02,15,31,9.70
2018,04,02,15,32,9.80
2018,04,02,15,33,9.80
2018,04,02,15,34,9.80
2018,04,02,15,35,9.80
2018,04,02,15,36,9.80
2018,04,02,15,37,9.80
2018,04,02,15,38,9.90
2018,04,02,15,39,9.90
2018,04,02,15,40,9.90
2018,04,02,15,41,10.00
2018,04,02,15,42,10.00
2018,04,02,15,43,10.00
2018,04,02,15,44,10.00
2018,04,02,15,45,9.90
2018,04,02,15,46,9.80
2018,04,02,15,47,9.80
2018,04,02,15,48,9.80
2018,04,02,15,49,9.70
2018,04,02,15,50,9.70
2018,04,02,15,51,9.70
2018,04,02,15,52,9.70
2018,04,02,15,53,9.70
2018,04,02,15,54,9.70
2018,04,02,15,55,9.70
2018,04,02,15,56,9.70
2018,04,02,15,57,9.60
2018,04,02,15,58,9.70
2018,04,02,15,59,9.60
2018,04,02,16,00,9.60
2018,04,02,16,01,9.60
2018,04,02,16,02,9.60
2018,04,02,16,03,9.60
2018,04,02,16,04,9.60
2018,04,02,16,05,9.60
2018,04,02,16,06,9.60
2018,04,02,16,07,9.60
2018,04,02,16,08,9.60
2018,04,02,16,09,9.60
2018,04,02,16,10,9.50
2018,04,02,16,11,9.50
2018,04,02,16,12,9.50
2018,04,02,16,13,9.50
2018,04,02,16,14,9.50
2018,04,02,16,15,9.40
2018,04,02,16,16,9.40
2018,04,02,16,17,9.40
2018,04,02,16,18,9.40
2018,04,02,16,19,9.40
2018,04,02,16,20,9.40
2018,04,02,16,21,9.30
2018,04,02,16,22,9.30
2018,04,02,16,23,9.30
2018,04,02,16,24,9.30
2018,04,02,16,25,9.30
2018,04,02,16,26,9.30
2018,04,02,16,27,9.30
2018,04,02,16,28,9.30
2018,04,02,16,29,9.40
2018,04,02,16,30,9.40
2018,04,02,16,31,9.40
2018,04,02,16,32,9.50
2018,04,02,16,33,9.50
2018,04,02,16,34,9.50
2018,04,02,16,35,9.60
2018,04,02,16,36,9.60
2018,04,02,16,37,9.60
2018,04,02,16,38,9.60
2018,04,02,16,39,9.60
2018,04,02,16,40,9.50
2018,04,02,16,41,9.50
2018,04,02,16,42,9.40
2018,04,02,16,43,9.40
2018,04,02,16,44,9.40
2018,04,02,16,45,9.40
2018,04,02,16,46,9.40
2018,04,02,16,47,9.40
2018,04,02,16,48,9.40
2018,04,02,16,49,9.40
2018,04,02,16,50,9.40
2018,04,02,16,51,9.40
2018,04,02,16,52,9.40
2018,04,02,16,53,9.30
2018,04,02,16,54,9.30
2018,04,02,16,55,9.30
2018,04,02,16,56,9.30
2018,04,02,16,57,9.30
2018,04,02,16,58,9.30
2018,04,02,16,59,9.30
2018,04,02,17,00,9.30
2018,04,02,17,01,9.30
2018,04,02,17,02,9.40
2018,04,02,17,03,9.40
2018,04,02,17,04,9.40
2018,04,02,17,05,9.40
2018,04,02,17,06,9.50
2018,04,02,17,07,9.50
2018,04,02,17,08,9.50
2018,04,02,17,09,9.60
2018,04,02,17,10,9.60
2018,04,02,17,11,9.60
2018,04,02,17,12,9.60
2018,04,02,17,13,9.60
2018,04,02,17,14,9.70
2018,04,02,17,15,9.60
2018,04,02,17,16,9.60
2018,04,02,17,17,9.60
2018,04,02,17,18,9.50
2018,04,02,17,19,9.50
2018,04,02,17,20,9.50
2018,04,02,17,21,9.50
2018,04,02,17,22,9.40
2018,04,02,17,23,9.40
2018,04,02,17,24,9.40
2018,04,02,17,25,9.30
2018,04,02,17,26,9.30
2018,04,02,17,27,9.30
2018,04,02,17,28,9.30
2018,04,02,17,29,9.30
2018,04,02,17,30,9.20
2018,04,02,17,31,9.20
2018,04,02,17,32,9.20
2018,04,02,17,33,9.20
2018,04,02,17,34,9.20
2018,04,02,17,35,9.20
2018,04,02,17,36,9.20
2018,04,02,17,37,9.20
2018,04,02,17,38,9.20
2018,04,02,17,39,9.20
2018,04,02,17,40,9.20
2018,04,02,17,41,9.30
2018,04,02,17,42,9.30
2018,04,02,17,43,9.20
2018,04,02,17,44,9.10
2018,04,02,17,45,9.10
2018,04,02,17,46,9.00
2018,04,02,17,47,8.90
2018,04,02,17,48,8.80
2018,04,02,17,49,8.80
2018,04,02,17,50,8.80
2018,04,02,17,51,8.80
2018,04,02,17,52,8.70
2018,04,02,17,53,8.70
2018,04,02,17,54,8.70
2018,04,02,17,55,8.70
2018,04,02,17,56,8.80
2018,04,02,17,57,8.80
2018,04,02,17,58,8.80
2018,04,02,17,59,8.80
2018,04,02,18,00,8.80
2018,04,02,18,01,8.80
2018,04,02,18,02,8.80
2018,04,02,18,03,8.90
2018,04,02,18,04,8.90
2018,04,02,18,05,8.90
2018,04,02,18,06,8.90
2018,04,02,18,07,8.90
2018,04,02,18,08,8.90
2018,04,02,18,09,9.00
2018,04,02,18,10,9.00
2018,04,02,18,11,9.00
2018,04,02,18,12,9.00
2018,04,02,18,13,9.10
2018,04,02,18,14,9.10
2018,04,02,18,15,9.10
2018,04,02,18,16,9.10
2018,04,02,18,17,9.10
2018,04,02,18,18,9.10
2018,04,02,18,19,9.10
2018,04,02,18,20,9.00
2018,04,02,18,21,9.00
2018,04,02,18,22,9.00
2018,04,02,18,23,9.00
2018,04,02,18,24,9.10
2018,04,02,18,25,9.10
2018,04,02,18,26,9.10
2018,04,02,18,27,9.10
2018,04,02,18,28,9.00
2018,04,02,18,29,9.10
2018,04,02,18,30,9.10
2018,04,02,18,31,9.00
2018,04,02,18,32,9.00
2018,04,02,18,33,9.00
2018,04,02,18,34,9.00
2018,04,02,18,35,9.00
2018,04,02,18,36,9.00
2018,04,02,18,37,9.00
2018,04,02,18,38,9.00
2018,04,02,18,39,8.90
2018,04,02,18,40,8.90
2018,04,02,18,41,8.90
2018,04,02,18,42,8.90
2018,04,02,18,43,8.90
2018,04,02,18,44,8.80
2018,04,02,18,45,8.80
2018,04,02,18,46,8.80
2018,04,02,18,47,8.80
2018,04,02,18,48,8.80
2018,04,02,18,49,8.80
2018,04,02,18,50,8.80
2018,04,02,18,51,8.80
2018,04,02,18,52,8.80
2018,04,02,18,53,8.80
2018,04,02,18,54,8.80
2018,04,02,18,55,8.80
2018,04,02,18,56,8.80
2018,04,02,18,57,8.80
2018,04,02,18,58,8.80
2018,04,02,18,59,8.80
2018,04,02,19,00,8.80
2018,04,02,19,01,8.80
2018,04,02,19,02,8.80
2018,04,02,19,03,8.80
2018,04,02,19,04,8.80
2018,04,02,19,05,8.80
2018,04,02,19,06,8.80
2018,04,02,19,07,8.70
2018,04,02,19,08,8.70
2018,04,02,19,09,8.70
2018,04,02,19,10,8.70
2018,04,02,19,11,8.60
2018,04,02,19,12,8.60
2018,04,02,19,13,8.60
2018,04,02,19,14,8.50
2018,04,02,19,15,8.50
2018,04,02,19,16,8.40
2018,04,02,19,17,8.40
2018,04,02,19,18,8.40
2018,04,02,19,19,8.40
2018,04,02,19,20,8.30
2018,04,02,19,21,8.30
2018,04,02,19,22,8.30
2018,04,02,19,23,8.30
2018,04,02,19,24,8.30
2018,04,02,19,25,8.30
2018,04,02,19,26,8.30
2018,04,02,19,27,8.30
2018,04,02,19,28,8.20
2018,04,02,19,29,8.20
2018,04,02,19,30,8.20
2018,04,02,19,31,8.20
2018,04,02,19,32,8.10
2018,04,02,19,33,8.10
2018,04,02,19,34,8.10
2018,04,02,19,35,8.10
2018,04,02,19,36,8.10
2018,04,02,19,37,8.00
2018,04,02,19,38,8.00
2018,04,02,19,39,8.00
2018,04,02,19,40,7.90
2018,04,02,19,41,7.90
2018,04,02,19,42,7.90
2018,04,02,19,43,7.90
2018,04,02,19,44,7.80
2018,04,02,19,45,7.80
2018,04,02,19,46,7.80
2018,04,02,19,47,7.80
2018,04,02,19,48,7.80
2018,04,02,19,49,7.80
2018,04,02,19,50,7.70
2018,04,02,19,51,7.70
2018,04,02,19,52,7.70
2018,04,02,19,53,7.70
2018,04,02,19,54,7.70
2018,04,02,19,55,7.60
2018,04,02,19,56,7.60
2018,04,02,19,57,7.60
2018,04,02,19,58,7.60
2018,04,02,19,59,7.60
2018,04,02,20,00,7.60
2018,04,02,20,01,7.50
2018,04,02,20,02,7.50
2018,04,02,20,03,7.50